Retour au catalogue

STARLINK-2498

ActifCommunicationsVLEO
NORAD 48326·PAYLOAD·🇺🇸 United States

Lancé Apr 29, 2021 depuis Cape Canaveral Space Force Station

Loading…

Prochains Passages (prochaines 24 heures)

TLE

FraisSource: CelesTrak SupGP

Époque: Sep 14, 2026, 21:37 UTC

1 48326C 21036BC  26257.90118056  .00017879  00000+0  57492-3 0  2575
2 48326  53.1584 300.5594 0001283  82.8064 267.9907 15.31693967    10

Suivez STARLINK-2498 en temps réel avec AllMySat

Download on the App Store